{"data":{"norad_id":60233,"intl_designator":"2024-127A","name":"TURKSAT 6A","alt_names":[],"object_type":"PAYLOAD","status":"ACTIVE","operator":null,"country":"TURK","launch_date":"2024-07-08","launch_site_code":"AFETR","launch_vehicle":null,"mission":null,"orbit_class":"UNKNOWN","rcs_meters":null,"size_class":null,"mass_kg":null,"dimensions":null,"purposes":["comms"],"wikipedia_slug":null,"has_3d_model":false,"image_url":null,"decayed_at":null,"tle_current":{"epoch":"2026-05-25T02:13:54.012000Z","epoch_age_seconds":63075,"freshness":"FRESH","line1":"1 60233U 24127A   26145.09298625  .00000144  00000+0  00000+0 0  9996","line2":"2 60233   0.0528 144.5726 0001138 345.7898 187.8052  1.00273219  6784","mean_motion":1.00273219,"eccentricity":0.0001138,"inclination_deg":0.0528,"raan_deg":144.5726,"arg_perigee_deg":345.7898,"mean_anomaly_deg":187.8052,"bstar":0,"rev_number":678,"period_min":1436.0763665122,"perigee_km":35781.394662976,"apogee_km":35790.991264476,"semimajor_km":42164.329963726,"source":"CELESTRAK","updated_at":"2026-05-25T13:38:14.146626Z"}}}